EHI
0 0 0 0 0 0 0 1 2 2 2 2 2 3 4 5 5 5 7 10 8 3 0 1 2 4 6 8 13 17 17 16 12 8 8 8 5 2 0 0 0 1 2 2
0 0 0 0 0 0 0 1 2 2 1 1 2 3 3 5 6 6 7 8 6 2 1 3 5 6 8 12 16 17 18 18 16 12 10 9 6 3 1 1 2 3 3 3
0 0 0 0 0 0 0 0 1 1 0 1 1 2 3 4 6 6 5 4 3 2 2 6 8 8 9 13 16 17 18 21 21 18 15 11 6 4 3 4 4 4 4 4
0 0 0 0 0 0 0 0 0 0 0 0 0 1 2 4 6 6 4 3 1 1 2 5 8 9 10 12 14 17 20 23 23 22 18 14 9 5 5 6 6 6 5 5
0 0 0 0 0 0 0 0 0 0 0 0 0 0 1 4 6 7 5 4 3 2 2 4 5 7 10 12 13 18 23 26 25 24 21 17 11 6 6 7 7 6 6 6
0 0 0 0 0 0 0 0 0 0 0 0 0 0 1 3 5 6 6 5 6 6 3 3 4 7 11 14 15 20 26 29 27 24 23 18 10 5 5 6 6 6 6 6
0 0 0 0 0 0 0 0 0 0 0 0 0 0 1 2 3 4 5 6 7 7 5 5 7 10 14 16 18 22 27 29 26 22 20 16 9 4 4 5 5 5 6 6
0 0 0 0 0 0 0 0 0 0 0 0 0 1 1 2 3 4 4 6 9 9 8 8 11 14 14 16 18 21 25 26 22 17 15 13 9 5 4 5 5 5 6 6
0 0 0 0 0 0 0 0 0 0 0 0 0 1 2 3 4 5 6 8 10 11 11 11 13 15 14 14 17 21 23 22 19 16 14 12 9 7 5 5 5 5 6 6
0 0 0 0 0 0 0 0 0 0 0 0 0 0 2 4 5 7 9 10 11 12 12 13 15 16 16 15 15 19 21 19 18 17 15 13 11 9 7 5 5 7 8 8
0 0 0 0 0 0 0 0 0 0 0 0 0 0 2 4 5 8 10 11 12 12 13 15 17 17 16 15 16 18 18 17 17 18 17 15 14 12 8 5 7 12 14 15
0 0 0 0 0 0 0 0 0 0 0 0 0 0 1 3 4 7 11 13 13 13 15 18 20 18 15 15 17 17 16 15 17 18 19 18 16 14 10 9 12 16 20 22
0 0 0 0 0 0 0 0 0 0 0 0 0 0 1 2 4 6 10 13 15 16 19 21 21 20 18 18 19 18 17 16 17 19 21 21 19 17 15 13 14 18 22 24
0 0 0 0 0 0 0 0 0 0 0 0 0 0 0 1 3 6 9 14 17 20 22 23 23 23 21 22 22 20 19 18 18 19 24 25 23 21 21 21 21 22 23 24
0 0 0 0 0 0 0 0 0 0 0 0 0 0 0 0 3 8 13 17 20 22 24 26 27 26 25 26 26 24 22 20 19 20 23 25 25 25 28 30 31 31 29 27
0 0 0 0 0 0 0 0 0 0 0 0 0 0 0 1 4 10 17 22 24 24 25 27 28 29 29 28 27 25 22 20 20 19 20 22 24 26 29 31 31 33 33 31
0 0 0 0 0 0 0 0 0 0 0 0 0 0 0 1 3 9 16 23 26 26 27 27 27 28 28 26 23 21 20 19 19 18 18 19 22 23 25 25 25 27 30 29
0 0 0 0 0 0 0 0 0 0 0 0 0 0 0 0 2 6 12 19 25 28 28 27 25 24 23 21 18 18 19 19 17 17 17 18 20 22 23 22 22 24 26 27
0 0 0 0 0 0 0 0 0 0 0 0 0 0 0 0 2 7 12 17 22 28 29 27 24 22 20 18 17 18 19 19 18 17 17 17 18 21 21 20 19 21 25 27
0 0 0 0 0 0 0 0 0 0 0 0 1 1 1 2 3 9 15 18 21 27 29 27 24 21 20 18 16 18 18 19 20 19 17 16 16 17 17 16 17 19 22 23
0 0 0 0 0 0 0 0 0 0 0 0 1 3 5 6 7 11 18 22 24 26 28 27 24 22 20 18 17 18 18 20 21 21 19 17 16 16 16 16 16 18 20 20
0 0 0 0 0 0 0 0 0 0 0 1 2 6 10 11 11 14 21 26 27 27 28 28 26 24 22 19 19 19 18 19 20 21 21 19 17 17 17 17 16 19 20 19
0 0 0 0 0 0 0 0 0 0 1 2 4 9 14 15 15 18 25 30 30 29 29 28 26 24 23 20 19 19 18 17 18 19 20 19 18 18 19 18 17 17 18 18
0 0 0 0 0 1 0 0 0 0 1 2 5 9 14 18 20 23 30 34 32 30 29 26 23 21 21 20 18 17 16 16 16 16 16 16 16 17 19 19 18 17 16 15
0 0 0 0 1 2 2 1 1 1 2 3 6 10 13 19 23 27 33 35 31 28 25 21 18 17 17 17 16 16 15 15 15 15 14 14 15 15 16 17 16 14 12 10
0 0 0 0 1 3 4 3 3 3 3 4 7 11 14 19 24 29 32 33 30 27 22 17 14 13 14 15 15 15 15 14 15 15 13 14 14 14 14 14 13 10 7 6
Wind_Speed
7 9 8 6 5 5 5 6 4 1 1 4 4 3 3 8 9 9 9 9 9 9 9 8 8 9 9 9 9 8 7 7 5 4 4 4 3 3 3 2 2 3 2 2
9 10 7 6 5 7 7 7 4 1 2 4 3 3 2 6 8 8 9 10 10 10 9 9 9 9 10 10 9 9 8 8 7 5 4 3 2 3 2 2 2 3 3 3
12 5 4 7 8 9 8 7 5 3 2 5 5 4 4 6 7 7 7 8 9 9 10 10 9 10 10 10 10 8 8 8 8 6 4 3 3 3 3 3 3 3 3 3
10 7 7 9 9 10 8 4 5 5 7 3 5 4 3 5 6 8 8 9 9 9 9 9 9 10 10 10 9 9 8 8 7 7 6 6 5 4 3 3 2 3 3 3
9 8 9 10 7 8 5 3 5 6 7 6 6 6 2 4 5 6 7 8 8 8 9 8 9 9 9 9 9 8 8 8 7 7 7 7 6 4 3 3 3 4 3 3
10 7 8 7 6 6 4 5 6 8 9 7 5 7 2 2 2 3 5 7 7 7 8 7 7 7 7 8 8 7 8 7 7 7 7 7 6 5 4 4 4 4 3 3
12 11 9 7 8 9 10 10 7 8 8 5 3 6 1 1 0 2 3 5 6 7 7 7 7 7 7 8 7 7 7 7 7 7 8 8 7 7 7 6 5 4 4 4
12 11 10 8 9 8 10 12 9 7 6 4 6 5 1 2 1 2 3 4 5 5 6 7 7 6 6 7 7 7 7 7 7 7 7 7 7 7 6 6 5 5 4 3
9 8 7 6 7 10 10 11 9 10 10 9 5 3 3 3 3 4 4 5 5 5 5 5 6 6 6 6 6 6 6 6 6 6 6 7 7 7 5 5 6 5 4 3
9 8 7 7 8 7 9 8 8 10 9 10 8 8 4 4 4 4 4 4 4 5 5 5 5 5 5 6 6 5 6 6 5 5 5 5 6 6 6 5 5 4 4 4
11 10 8 9 10 9 9 10 9 9 9 10 9 3 2 2 3 4 4 4 5 5 6 5 5 5 5 5 5 5 4 5 5 5 5 5 5 6 6 5 5 5 5 5
8 9 9 9 6 6 9 9 11 10 9 9 11 4 2 1 2 3 3 5 5 5 6 5 5 5 4 4 4 4 4 4 4 4 4 5 5 5 6 6 6 6 5 5
5 9 10 11 11 9 9 10 10 11 10 10 12 5 4 3 3 3 4 5 5 6 6 5 5 4 3 3 3 3 4 4 4 4 4 5 5 6 6 6 6 6 5 5
7 10 11 12 7 6 10 10 10 12 11 11 11 8 5 4 4 4 4 5 6 6 5 5 5 4 3 3 3 2 2 3 3 4 4 4 5 5 6 6 6 6 5 5
7 11 11 11 9 10 11 11 11 12 12 13 10 9 7 5 4 4 5 6 6 6 6 6 5 4 4 3 3 2 2 2 2 3 3 3 4 4 4 5 5 5 5 6
6 8 9 11 11 12 13 13 13 13 13 13 12 11 5 2 2 4 6 7 7 7 7 6 5 5 4 3 3 2 2 2 2 3 2 2 3 3 3 4 4 4 4 4
6 7 9 11 10 12 15 13 13 12 11 12 13 7 4 4 4 5 6 7 7 7 7 6 5 5 4 3 3 3 2 2 3 3 2 2 2 3 3 4 4 4 4 5
8 8 8 9 8 15 7 4 8 9 9 9 8 6 5 5 4 4 5 6 6 6 6 6 5 5 4 3 3 3 3 3 3 3 2 2 3 3 3 3 4 4 4 4
10 9 8 9 12 12 7 4 6 9 8 5 7 6 6 4 5 5 4 5 5 5 5 5 5 5 4 3 3 3 3 3 3 2 2 2 3 3 3 3 3 3 3 4
9 10 10 10 12 12 4 2 2 7 8 1 4 5 5 5 7 2 2 3 4 4 4 4 4 4 4 3 3 3 3 3 2 2 2 3 3 3 3 3 3 3 3 4
10 10 12 13 13 8 0 1 6 9 1 2 3 3 4 4 4 3 0 2 3 3 4 4 4 4 3 3 3 3 2 2 1 1 2 2 2 3 3 2 2 2 3 3
9 9 11 11 13 7 2 2 4 2 3 3 3 3 3 3 2 1 1 2 3 4 4 4 4 4 4 4 4 3 2 2 2 2 2 2 2 3 2 2 2 2 3 3
7 5 4 5 3 3 2 2 1 2 2 3 3 3 3 3 2 0 1 2 3 3 4 4 4 4 3 4 4 4 2 2 2 2 2 2 2 2 2 2 3 3 3 3
5 3 4 5 4 3 3 2 0 2 3 3 3 3 3 3 2 1 2 2 2 3 3 3 4 3 3 3 3 3 3 3 2 3 2 2 2 2 2 2 3 2 2 2
3 4 5 7 4 2 4 2 2 3 3 3 3 3 3 2 2 1 2 2 2 2 3 3 3 3 3 3 2 3 3 3 3 3 3 3 2 2 2 2 1 2 1 1
7 7 7 4 1 3 3 2 3 3 3 3 3 3 3 2 1 1 1 2 2 2 2 2 3 3 3 3 2 2 2 3 3 3 3 2 2 2 2 2 2 2 1 2
Wind_Direction
205 227 223 227 251 291 291 285 287 349 80 247 247 259 163 173 191 188 185 185 188 190 182 180 184 185 185 187 192 199 203 191 195 200 207 208 209 216 210 201 187 197 202 192
214 224 236 252 252 253 257 262 263 210 140 260 265 256 184 178 195 195 192 191 193 190 183 183 188 190 191 190 194 197 202 199 202 199 212 221 228 229 218 209 173 198 196 210
233 223 221 236 236 242 248 263 282 293 216 213 254 215 182 169 188 193 198 197 198 196 192 187 193 198 197 194 197 200 202 201 206 204 206 203 202 225 207 201 191 195 201 210
234 232 229 237 239 250 247 254 267 260 254 230 253 260 169 178 182 192 193 195 199 197 197 194 193 198 200 199 197 199 201 205 203 204 211 211 215 217 214 216 197 197 203 209
220 219 230 239 244 251 270 263 250 253 257 259 237 263 157 174 199 197 193 194 196 193 193 194 195 196 198 194 194 192 195 200 200 207 210 216 220 217 210 208 196 214 202 213
240 229 239 245 242 233 217 216 219 234 245 246 249 265 239 178 226 206 184 189 191 189 187 186 188 188 190 187 188 185 185 194 198 203 209 214 216 219 219 214 204 211 205 204
220 220 216 227 222 204 220 230 230 225 224 234 197 251 285 17 217 212 190 175 177 182 183 179 181 181 186 186 186 184 181 190 195 202 209 211 215 216 217 219 213 225 216 205
216 211 203 212 235 228 223 243 255 264 263 234 189 240 174 126 142 183 178 157 161 170 171 173 173 175 179 182 184 186 185 194 195 200 208 212 214 219 217 219 230 223 229 216
230 215 186 206 229 244 230 235 261 269 266 267 238 215 195 184 190 178 160 152 152 154 154 163 167 169 171 178 183 186 188 195 198 199 203 210 215 225 224 218 226 225 220 207
248 237 207 193 210 217 255 251 242 251 258 260 243 235 226 192 198 180 169 157 145 151 152 151 152 157 162 170 174 181 187 191 193 194 203 199 206 212 217 223 219 226 220 217
245 239 216 204 218 220 210 224 241 253 261 267 266 254 76 216 205 191 172 151 144 150 148 144 142 147 149 154 162 172 182 188 192 198 203 206 204 204 208 214 217 217 220 218
230 243 234 219 213 248 239 237 237 246 247 255 272 271 99 160 187 172 155 144 147 151 144 139 133 132 138 144 154 161 176 187 192 194 199 202 206 210 212 211 214 217 220 224
224 240 230 216 199 202 225 228 239 253 252 252 260 249 137 151 170 162 157 153 155 154 146 139 133 133 135 136 145 165 181 186 184 184 199 202 208 211 217 220 218 217 216 222
248 244 245 249 245 215 218 228 236 246 250 252 255 262 235 215 207 184 168 167 165 160 153 150 145 142 137 138 143 166 187 188 190 187 197 201 216 220 220 221 220 219 218 218
242 242 243 256 259 249 241 236 231 240 256 266 268 259 258 260 220 192 180 174 171 168 165 163 160 150 152 146 145 150 159 168 185 193 208 209 220 225 227 223 221 220 221 219
247 255 246 242 242 244 247 242 239 240 248 254 260 262 270 268 210 188 181 181 179 176 172 170 169 164 165 160 160 156 161 162 180 197 211 211 219 222 223 221 216 217 219 222
234 241 247 243 232 240 241 239 240 242 244 249 254 255 255 241 227 208 191 189 185 181 179 180 178 177 174 172 170 175 172 171 181 192 200 209 220 227 225 218 209 212 217 219
235 239 242 248 231 241 243 240 243 246 251 257 262 260 256 258 244 221 209 194 185 185 186 187 187 182 181 173 167 174 173 178 187 191 199 215 223 225 229 230 221 217 215 220
231 228 241 245 239 241 224 209 232 242 244 265 262 254 255 257 226 203 197 202 196 190 192 190 190 182 174 174 171 179 182 180 192 196 209 217 220 222 229 235 232 229 225 226
206 219 236 238 251 249 229 157 246 252 232 259 272 262 258 241 238 196 160 194 194 186 181 180 179 174 171 172 173 183 185 187 196 201 215 223 228 227 230 236 240 238 235 238
192 207 227 238 245 249 19 219 210 233 242 0 303 281 262 247 292 344 204 185 182 177 172 172 173 175 166 167 175 190 190 203 198 195 210 214 219 227 230 239 244 250 249 248
221 216 216 233 242 236 111 189 233 333 9 339 323 307 299 302 294 322 163 167 165 166 170 171 172 175 169 174 178 184 193 191 187 194 204 213 218 228 205 216 230 235 242 237
237 261 251 242 243 96 136 157 100 340 322 326 328 327 313 299 291 244 142 152 159 162 168 175 173 166 169 179 186 189 182 181 189 205 212 216 227 234 231 225 224 227 227 243
205 267 253 243 211 192 188 198 306 325 324 323 323 313 300 289 279 207 167 157 157 159 165 172 171 169 172 183 195 185 176 185 191 205 210 206 213 217 210 239 234 238 245 252
256 218 229 237 234 247 213 230 309 324 321 322 322 320 311 297 279 218 165 149 148 147 154 164 169 170 175 181 194 183 178 187 200 216 223 216 216 210 219 226 278 265 295 316
235 236 241 252 254 269 266 303 311 302 303 307 314 330 337 336 322 232 153 133 142 149 153 154 158 169 173 175 186 186 187 195 205 213 227 227 222 222 239 226 192 58 44 110